Showing default

SPACEMOBILE-001, 61047

Orbit data source: Space-Track

SPACEMOBILE-001, 61047 is a payload satellite owned by AST & Science (US) in LEO that was launched on Thu, 12 Sep 2024 UTC via an FALCON 9 launch vehicle from the Air Force Eastern Test Range (AFETR). Payload-class satellites include a variety of spacecraft equipped with specific instruments for various scientific and technological missions. These include communications satellites like Starlink; space stations such as the ISS; scientific satellites like the Hubble; Earth observation satellites from companies like Planet Labs, Umbra, and HawkEye 360; GPS; miniature CubeSats for education and research; and military/defense satellites.

Loading next visibility...
Identifier
61047, 2024-163C
Orbit
LEO
Country
Flag of USUS
Related business
Manufacturer
AST & Science
Mission
Operational Commercial Communications
Bus & Motor
BW3, Unknown motor
Mass
1,500 kg wet, 1,500 kg dry
Launch date (UTC)
2024-09-12 (1 year ago)
Launch vehicle
FALCON 9
Launch site
Air Force Eastern Test Range (AFETR)
Object type
Payload
Rocket body
Debris
Shape & HBR
Box + 1 Plate, 6.5 m
Radar Cross Section
32.590 m², Large (>1 m²)

Expand to show TLE details & history
Last TLE update: 18 hours ago

TLE from 18 hours ago
0 SPACEMOBILE-001
1 61047U 24163C   25347.96611705  .00018007  00000-0  81212-3 0  9993
2 61047  52.9753  81.1452 0007665 293.0400  66.9785 15.21074895 69574
Epoch: 2025-12-13T23:11Z
TLE epoch observation values (Epoch: 2025-12-13T23:11:12.513Z)
Latitude
-0.00006°
Longitude
10.45721°
Altitude
501.414 km
Speed
7.616 km/s
True Right ascension
05h 24m 34s
True Declination
0° 00' 00"
Sunlit
Object was in full shadow at epoch
Visualization orbit readout
Latitude
Unknown
Longitude
Unknown
Altitude
Unknown
Speed
Unknown
Apparent Right ascension
Unknown
Apparent Declination
Unknown
Sunlit
N/A
Visualization observer readout
Local Sidereal Time
15:57:46
Azimuth
Unknown
Elevation
Unknown
Doppler factor
Unknown
Orbital elements
Apogee altitude
508.157 km
Perigee altitude
497.608 km
Semi-major axis
6,881.019 km
Eccentricity
0.00077
Inclination
52.9753°
RAAN
81.1452°
Arg. of periapsis
293.04°
True anomaly
67.05937°
Mean anomaly
66.9785°
Eccentric anomaly
67.01893°
Mean motion
3.80245 °/min
Orbital period
94.68 mins
BSTAR
0.00081212
Loading maneuver chart data...
Computing Atmospheric mass density...
Loading historical data...
Loading historical data...
Loading historical data...
Loading historical data...
Loading historical data...
Loading historical data...
Loading historical data...

Documentation

Showing up to 5 results
|